This is the latest recevied weather packets stored in our database for station/object KI4BIY. If no packets are shown the sender has not sent any weather packets the latest 1 day(s).
| Time | Temp. | Humidity | Pressure | Rain* | Wind** | Luminosity | Snow |
|---|---|---|---|---|---|---|---|
| 1836274838 | 20.56° C | 89% | 1016 hPa | 0 mm | 0 m/s | 0 W/m² | - |
| 1836274536 | 20.56° C | 88% | 1016 hPa | 0 mm | 0 m/s | 0 W/m² | - |
| 1836274389 | 20.56° C | 89% | 1016.2 hPa | 0 mm | 0 m/s | 0 W/m² | - |
| 1836274235 | 20.56° C | 87% | 1016.3 hPa | 0 mm | 0 m/s | 0 W/m² | - |
| 1836273934 | 21.11° C | 88% | 1016.3 hPa | 0 mm | 0 m/s | 0 W/m² | - |
| 1778054373 | 11.11° C | 99% | 1007.6 hPa | 7.11 mm | 0 m/s | 0 W/m² | - |
| 1778054071 | 11.11° C | 99% | 1008.2 hPa | 6.1 mm | 0 m/s | 0 W/m² | - |
| 1778053769 | 11.67° C | 99% | 1008.6 hPa | 4.83 mm | 0.45 m/s, 224° | 0 W/m² | - |
| 1778053465 | 11.67° C | 99% | 1009.1 hPa | 6.6 mm | 0.45 m/s, 283° | 0 W/m² | - |
| 1778053162 | 11.67° C | 99% | 1008.4 hPa | 4.32 mm | 0 m/s | 0 W/m² | - |
| 1778052860 | 11.67° C | 99% | 1008.2 hPa | 4.83 mm | 0.45 m/s, 318° | 0 W/m² | - |
| 1778052557 | 11.67° C | 99% | 1008.3 hPa | 1.78 mm | 0.89 m/s, 313° | 0 W/m² | - |
| 1778052254 | 12.22° C | 99% | 1008.4 hPa | 1.27 mm | 0.45 m/s, 265° | 0 W/m² | - |
| 1778051952 | 12.22° C | 99% | 1008.6 hPa | 1.27 mm | 0 m/s | 0 W/m² | - |
| 1778051650 | 12.22° C | 99% | 1008.4 hPa | 1.27 mm | 0.45 m/s, 257° | 0 W/m² | - |
| 1778051346 | 12.22° C | 99% | 1007.7 hPa | 0 mm | 0.45 m/s, 275° | 0 W/m² | - |
| 1778051043 | 12.22° C | 99% | 1007.9 hPa | 0 mm | 0 m/s | 0 W/m² | - |
| 1778050740 | 12.22° C | 99% | 1007.2 hPa | 0 mm | 0.45 m/s, 46° | 0 W/m² | - |
| 1778050438 | 12.22° C | 99% | 1007.8 hPa | 0 mm | 0.45 m/s, 298° | 0 W/m² | - |
| 1778050134 | 12.22° C | 99% | 1008.1 hPa | 0 mm | 0.45 m/s, 225° | 0 W/m² | - |
| 1778049830 | 12.78° C | 99% | 1008.5 hPa | 0 mm | 0.45 m/s, 334° | 0 W/m² | - |
| 1778049527 | 12.78° C | 99% | 1008.3 hPa | 0 mm | 0.45 m/s, 275° | 0 W/m² | - |
| 1778049225 | 12.78° C | 99% | 1007.9 hPa | 1.78 mm | 0 m/s | 0 W/m² | - |
| 1778048923 | 12.78° C | 99% | 1007.7 hPa | 13.72 mm | 0 m/s | 0 W/m² | - |
| 1778048620 | 12.78° C | 99% | 1007.6 hPa | 36.58 mm | 0 m/s | 0 W/m² | - |
* Rain latest hour (hover to see other rain measurements)
** Current wind speed in m/s (hover to see current wind gust speed)